• In Deutschland
  • Länderverzeichnis
  • Für 7 Tage
  • Wassertemperatur
  • Satellitenkarten
  • Wetterkarte
  • Widgets
  • user-avatar
    Anmelden

    Stündliche Wetter Dajianchang

    Heute, 23 September, Sonntag

    Zeit Temperatur Niederschläge Wind Luftdruck Luftfeuchtigkeit
    00:00 +16°C° 0 mm 2 m/S 762 mmHg 30%
    01:00 +16°C° 0 mm 2 m/S 762 mmHg 31%
    02:00 +15°C° 0 mm 1 m/S 762 mmHg 31%
    03:00 +15°C° 0 mm 2 m/S 762 mmHg 31%
    04:00 +15°C° 0 mm 2 m/S 763 mmHg 31%
    05:00 +14°C° 0 mm 3 m/S 763 mmHg 32%
    06:00 +15°C° 0 mm 4 m/S 763 mmHg 31%
    07:00 +16°C° 0 mm 5 m/S 763 mmHg 30%
    08:00 +19°C° 0 mm 5 m/S 763 mmHg 30%
    09:00 +20°C° 0 mm 6 m/S 763 mmHg 28%
    10:00 +21°C° 0 mm 6 m/S 763 mmHg 27%
    11:00 +23°C° 0 mm 7 m/S 763 mmHg 25%
    12:00 +23°C° 0 mm 6 m/S 763 mmHg 25%
    13:00 +24°C° 0 mm 6 m/S 762 mmHg 25%
    14:00 +26°C° 0 mm 6 m/S 762 mmHg 25%
    15:00 +25°C° 0 mm 5 m/S 762 mmHg 28%
    16:00 +25°C° 0 mm 5 m/S 762 mmHg 30%
    17:00 +23°C° 0 mm 4 m/S 762 mmHg 32%
    18:00 +22°C° 0 mm 4 m/S 762 mmHg 35%
    19:00 +20°C° 0 mm 3 m/S 763 mmHg 37%
    20:00 +18°C° 0 mm 3 m/S 764 mmHg 40%
    21:00 +18°C° 0 mm 3 m/S 764 mmHg 41%
    22:00 +17°C° 0 mm 3 m/S 765 mmHg 42%
    23:00 +16°C° 0 mm 3 m/S 765 mmHg 43%

    Morgen, 24 September, Montag

    Zeit Temperatur Niederschläge Wind Luftdruck Luftfeuchtigkeit
    00:00 +16°C° 0 mm 3 m/S 765 mmHg 44%
    01:00 +14°C° 0 mm 3 m/S 766 mmHg 45%
    02:00 +14°C° 0 mm 3 m/S 766 mmHg 47%
    03:00 +15°C° 0 mm 2 m/S 766 mmHg 48%
    04:00 +14°C° 0 mm 2 m/S 766 mmHg 50%
    05:00 +14°C° 0 mm 2 m/S 767 mmHg 51%
    06:00 +15°C° 0 mm 2 m/S 767 mmHg 50%
    07:00 +16°C° 0 mm 2 m/S 767 mmHg 48%
    08:00 +17°C° 0 mm 2 m/S 767 mmHg 46%
    09:00 +19°C° 0 mm 2 m/S 767 mmHg 41%
    10:00 +20°C° 0 mm 2 m/S 767 mmHg 37%
    11:00 +23°C° 0 mm 2 m/S 767 mmHg 32%
    12:00 +24°C° 0 mm 2 m/S 766 mmHg 30%
    13:00 +25°C° 0 mm 2 m/S 765 mmHg 28%
    14:00 +26°C° 0 mm 2 m/S 765 mmHg 27%
    15:00 +25°C° 0 mm 1 m/S 765 mmHg 29%
    16:00 +25°C° 0 mm 1 m/S 764 mmHg 31%
    17:00 +25°C° 0 mm 1 m/S 764 mmHg 32%
    18:00 +23°C° 0 mm 1 m/S 765 mmHg 35%
    19:00 +21°C° 0 mm 1 m/S 765 mmHg 37%
    20:00 +19°C° 0 mm 1 m/S 765 mmHg 39%
    21:00 +19°C° 0 mm 1 m/S 766 mmHg 41%
    22:00 +17°C° 0 mm 2 m/S 766 mmHg 43%
    23:00 +17°C° 0 mm 2 m/S 766 mmHg 46%

    übermorgen, 25 September, Dienstag

    Zeit Temperatur Niederschläge Wind Luftdruck Luftfeuchtigkeit
    00:00 +16°C° 0 mm 1 m/S 766 mmHg 47%
    01:00 +16°C° 0 mm 1 m/S 766 mmHg 49%
    02:00 +15°C° 0 mm 1 m/S 766 mmHg 51%
    03:00 +15°C° 0 mm 1 m/S 766 mmHg 52%
    04:00 +15°C° 0 mm 1 m/S 766 mmHg 53%
    05:00 +14°C° 0 mm 1 m/S 766 mmHg 54%
    06:00 +15°C° 0 mm 1 m/S 766 mmHg 51%
    07:00 +18°C° 0 mm 1 m/S 766 mmHg 49%
    08:00 +19°C° 0 mm 1 m/S 766 mmHg 46%
    09:00 +21°C° 0 mm 1 m/S 766 mmHg 42%
    10:00 +23°C° 0 mm 2 m/S 766 mmHg 37%
    11:00 +24°C° 0 mm 2 m/S 766 mmHg 33%
    12:00 +25°C° 0 mm 3 m/S 766 mmHg 31%
    13:00 +26°C° 0 mm 3 m/S 765 mmHg 29%
    14:00 +27°C° 0 mm 3 m/S 764 mmHg 28%
    15:00 +26°C° 0 mm 3 m/S 764 mmHg 29%
    16:00 +26°C° 0 mm 3 m/S 764 mmHg 31%
    17:00 +25°C° 0 mm 3 m/S 763 mmHg 33%
    18:00 +24°C° 0 mm 3 m/S 764 mmHg 36%
    19:00 +21°C° 0 mm 3 m/S 764 mmHg 39%
    20:00 +19°C° 0 mm 3 m/S 765 mmHg 42%
    21:00 +19°C° 0 mm 3 m/S 765 mmHg 44%
    22:00 +18°C° 0 mm 3 m/S 765 mmHg 47%
    23:00 +18°C° 0 mm 3 m/S 765 mmHg 50%

    26 September, Mittwoch

    Zeit Temperatur Niederschläge Wind Luftdruck Luftfeuchtigkeit
    00:00 +17°C° 0 mm 2 m/S 765 mmHg 52%
    01:00 +17°C° 0 mm 2 m/S 765 mmHg 54%
    02:00 +17°C° 0 mm 2 m/S 764 mmHg 56%
    03:00 +16°C° 0 mm 2 m/S 765 mmHg 57%
    04:00 +16°C° 0 mm 2 m/S 765 mmHg 58%
    05:00 +15°C° 0 mm 1 m/S 765 mmHg 59%
    06:00 +16°C° 0 mm 1 m/S 765 mmHg 56%
    07:00 +17°C° 0 mm 2 m/S 765 mmHg 53%
    08:00 +18°C° 0 mm 2 m/S 766 mmHg 50%
    09:00 +20°C° 0 mm 2 m/S 765 mmHg 44%
    10:00 +23°C° 0 mm 2 m/S 765 mmHg 39%
    11:00 +25°C° 0 mm 3 m/S 765 mmHg 33%
    12:00 +26°C° 0 mm 3 m/S 764 mmHg 31%
    13:00 +27°C° 0 mm 4 m/S 764 mmHg 29%
    14:00 +28°C° 0 mm 4 m/S 763 mmHg 27%
    15:00 +27°C° 0 mm 4 m/S 763 mmHg 29%
    16:00 +26°C° 0 mm 4 m/S 763 mmHg 31%
    17:00 +26°C° 0 mm 3 m/S 762 mmHg 34%
    18:00 +24°C° 0 mm 3 m/S 763 mmHg 38%
    19:00 +22°C° 0 mm 3 m/S 763 mmHg 43%
    20:00 +21°C° 0 mm 4 m/S 763 mmHg 48%
    21:00 +20°C° 0 mm 4 m/S 763 mmHg 52%
    22:00 +20°C° 0 mm 3 m/S 763 mmHg 56%
    23:00 +20°C° 0 mm 3 m/S 764 mmHg 60%

    27 September, Donnerstag

    Zeit Temperatur Niederschläge Wind Luftdruck Luftfeuchtigkeit
    00:00 +19°C° 0 mm 3 m/S 763 mmHg 59%
    01:00 +19°C° 0 mm 3 m/S 763 mmHg 59%
    02:00 +18°C° 0 mm 3 m/S 763 mmHg 58%
    03:00 +18°C° 0 mm 2 m/S 763 mmHg 59%
    04:00 +17°C° 0 mm 2 m/S 763 mmHg 60%
    05:00 +17°C° 0 mm 2 m/S 763 mmHg 60%
    06:00 +18°C° 0 mm 2 m/S 763 mmHg 59%
    07:00 +19°C° 0 mm 2 m/S 764 mmHg 57%
    08:00 +19°C° 0 mm 2 m/S 764 mmHg 55%
    09:00 +21°C° 0 mm 2 m/S 764 mmHg 50%
    10:00 +24°C° 0 mm 2 m/S 763 mmHg 45%
    11:00 +26°C° 0 mm 3 m/S 763 mmHg 39%
    12:00 +26°C° 0 mm 3 m/S 762 mmHg 38%
    13:00 +27°C° 0 mm 3 m/S 762 mmHg 36%
    14:00 +28°C° 0 mm 4 m/S 761 mmHg 34%
    15:00 +26°C° 0 mm 3 m/S 761 mmHg 38%
    16:00 +25°C° 0 mm 3 m/S 761 mmHg 43%
    17:00 +24°C° 0 mm 2 m/S 761 mmHg 47%
    18:00 +23°C° 0.3 mm 2 m/S 761 mmHg 53%
    19:00 +21°C° 0.3 mm 2 m/S 761 mmHg 59%
    20:00 +20°C° 0.3 mm 2 m/S 761 mmHg 64%
    21:00 +20°C° 0.6 mm 2 m/S 761 mmHg 68%
    22:00 +19°C° 0.6 mm 2 m/S 761 mmHg 71%
    23:00 +19°C° 0.6 mm 2 m/S 761 mmHg 75%

    28 September, Freitag

    Zeit Temperatur Niederschläge Wind Luftdruck Luftfeuchtigkeit
    00:00 +19°C° 0 mm 2 m/S 760 mmHg 75%
    01:00 +19°C° 0 mm 2 m/S 760 mmHg 74%
    02:00 +19°C° 0 mm 2 m/S 760 mmHg 74%
    03:00 +19°C° 0 mm 1 m/S 760 mmHg 75%
    04:00 +19°C° 0 mm 1 m/S 760 mmHg 77%
    05:00 +18°C° 0 mm 1 m/S 760 mmHg 78%
    06:00 +19°C° 0 mm 1 m/S 760 mmHg 75%
    07:00 +20°C° 0 mm 1 m/S 760 mmHg 72%
    08:00 +20°C° 0 mm 1 m/S 760 mmHg 69%
    09:00 +22°C° 0 mm 1 m/S 760 mmHg 63%
    10:00 +24°C° 0 mm 2 m/S 760 mmHg 56%
    11:00 +25°C° 0 mm 2 m/S 759 mmHg 49%
    12:00 +26°C° 0 mm 2 m/S 759 mmHg 45%
    13:00 +27°C° 0 mm 2 m/S 759 mmHg 41%
    14:00 +28°C° 0 mm 2 m/S 758 mmHg 37%
    15:00 +28°C° 0 mm 2 m/S 758 mmHg 38%
    16:00 +28°C° 0 mm 1 m/S 759 mmHg 39%
    17:00 +28°C° 0 mm 1 m/S 759 mmHg 40%
    18:00 +26°C° 0 mm 1 m/S 759 mmHg 44%
    19:00 +25°C° 0 mm 1 m/S 759 mmHg 48%
    20:00 +23°C° 0 mm 2 m/S 760 mmHg 53%
    21:00 +21°C° 0.1 mm 2 m/S 760 mmHg 57%
    22:00 +21°C° 0.1 mm 2 m/S 760 mmHg 62%
    23:00 +20°C° 0.1 mm 2 m/S 760 mmHg 66%
    Mehr zeigen